TimeMST,TemperatureF,Dew PointF,Humidity,Sea Level PressureIn,VisibilityMPH,Wind Direction,Wind SpeedMPH,Gust SpeedMPH,PrecipitationIn,Events,Conditions,WindDirDegrees,DateUTC
12:15 AM,23.5,5.9,47,30.33,10.0,Calm,Calm,-,N/A,,Clear,0,2014-01-02 07:15:00
12:35 AM,21.9,5.7,50,30.33,10.0,NNW,5.8,-,N/A,,Clear,330,2014-01-02 07:35:00
12:55 AM,19.4,5.9,56,30.32,10.0,Calm,Calm,-,N/A,,Clear,0,2014-01-02 07:55:00
1:15 AM,21.4,5.5,51,30.32,10.0,NNW,10.4,-,N/A,,Clear,340,2014-01-02 08:15:00
1:35 AM,26.4,4.5,39,30.31,10.0,NNW,13.8,-,N/A,,Clear,340,2014-01-02 08:35:00
1:55 AM,27.9,3.7,36,30.32,10.0,NNW,10.4,-,N/A,,Clear,330,2014-01-02 08:55:00
2:15 AM,27.1,4.3,38,30.31,10.0,North,9.2,-,N/A,,Clear,350,2014-01-02 09:15:00
2:35 AM,26.6,4.8,40,30.32,10.0,NNW,3.5,-,N/A,,Clear,340,2014-01-02 09:35:00
2:55 AM,26.6,4.8,40,30.32,10.0,NNW,8.1,-,N/A,,Clear,330,2014-01-02 09:55:00
3:15 AM,23.5,5.5,46,30.32,10.0,NNW,3.5,-,N/A,,Clear,330,2014-01-02 10:15:00
3:35 AM,26.6,5.0,40,30.32,10.0,NNW,4.6,-,N/A,,Clear,340,2014-01-02 10:35:00
3:55 AM,26.4,4.8,40,30.32,10.0,WSW,3.5,-,N/A,,Clear,250,2014-01-02 10:55:00
4:15 AM,28.8,3.2,34,30.32,10.0,WNW,4.6,-,N/A,,Clear,300,2014-01-02 11:15:00
4:35 AM,28.9,2.8,33,30.33,10.0,West,4.6,-,N/A,,Clear,270,2014-01-02 11:35:00
4:55 AM,26.4,3.7,38,30.32,10.0,Calm,Calm,-,N/A,,Clear,0,2014-01-02 11:55:00
5:15 AM,25.0,4.5,42,30.33,10.0,West,10.4,16.1,N/A,,Clear,260,2014-01-02 12:15:00
5:35 AM,25.9,4.1,39,30.33,10.0,North,9.2,-,N/A,,Clear,350,2014-01-02 12:35:00
5:55 AM,25.3,4.3,41,30.34,10.0,NW,5.8,-,N/A,,Clear,320,2014-01-02 12:55:00
6:15 AM,24.8,5.7,44,30.34,10.0,West,8.1,-,N/A,,Clear,280,2014-01-02 13:15:00
6:35 AM,26.8,5.4,40,30.34,10.0,West,6.9,-,N/A,,Clear,280,2014-01-02 13:35:00
6:55 AM,25.7,5.7,43,30.34,10.0,West,6.9,-,N/A,,Clear,270,2014-01-02 13:55:00
7:15 AM,24.8,5.0,43,30.34,10.0,WNW,9.2,-,N/A,,Clear,300,2014-01-02 14:15:00
7:35 AM,28.0,5.2,38,30.34,10.0,West,9.2,-,N/A,,Clear,270,2014-01-02 14:35:00
7:55 AM,30.7,4.3,33,30.35,10.0,West,10.4,-,N/A,,Clear,260,2014-01-02 14:55:00
8:15 AM,32.0,3.9,31,30.35,10.0,WNW,5.8,-,N/A,,Clear,290,2014-01-02 15:15:00
8:35 AM,32.0,3.7,30,30.35,10.0,NNW,9.2,-,N/A,,Clear,330,2014-01-02 15:35:00
8:55 AM,29.8,6.1,37,30.35,10.0,NNW,12.7,-,N/A,,Clear,340,2014-01-02 15:55:00
9:15 AM,31.6,5.7,34,30.37,10.0,North,9.2,17.3,N/A,,Clear,350,2014-01-02 16:15:00
9:35 AM,31.8,5.0,32,30.37,10.0,NNW,12.7,-,N/A,,Clear,340,2014-01-02 16:35:00
9:55 AM,32.9,4.6,30,30.37,10.0,NNW,10.4,17.3,N/A,,Clear,340,2014-01-02 16:55:00
10:15 AM,35.4,4.5,27,30.36,10.0,NNW,9.2,-,N/A,,Clear,340,2014-01-02 17:15:00
10:35 AM,37.9,4.3,25,30.35,10.0,NNW,6.9,-,N/A,,Clear,340,2014-01-02 17:35:00
10:55 AM,43.5,-0.8,16,30.35,10.0,SW,9.2,19.6,N/A,,Clear,230,2014-01-02 17:55:00
11:15 AM,45.7,-1.8,14,30.34,10.0,WSW,11.5,18.4,N/A,,Clear,240,2014-01-02 18:15:00
11:35 AM,45.5,-1.1,14,30.32,10.0,SW,17.3,24.2,N/A,,Clear,230,2014-01-02 18:35:00
11:55 AM,46.2,-0.9,14,30.31,10.0,SW,12.7,26.5,N/A,,Clear,230,2014-01-02 18:55:00
12:15 PM,47.1,-0.4,14,30.29,10.0,SW,15.0,21.9,N/A,,Clear,220,2014-01-02 19:15:00
12:35 PM,47.5,-1.1,13,30.29,10.0,SW,15.0,24.2,N/A,,Clear,220,2014-01-02 19:35:00
12:55 PM,47.7,-0.2,14,30.28,10.0,SW,11.5,25.3,N/A,,Clear,230,2014-01-02 19:55:00
1:15 PM,46.9,-0.2,14,30.27,10.0,SSW,13.8,23.0,N/A,,Clear,210,2014-01-02 20:15:00
1:35 PM,46.8,-0.4,14,30.27,10.0,SW,18.4,25.3,N/A,,Clear,230,2014-01-02 20:35:00
1:55 PM,46.6,0.7,15,30.26,10.0,SW,12.7,24.2,N/A,,Clear,230,2014-01-02 20:55:00
2:15 PM,46.4,-0.0,15,30.26,10.0,SW,19.6,25.3,N/A,,Clear,230,2014-01-02 21:15:00
2:35 PM,45.7,-1.1,14,30.26,10.0,SW,18.4,29.9,N/A,,Clear,220,2014-01-02 21:35:00
2:55 PM,45.1,0.9,16,30.26,10.0,SW,15.0,28.8,N/A,,Clear,220,2014-01-02 21:55:00
3:15 PM,44.8,1.0,16,30.26,10.0,SW,17.3,25.3,N/A,,Clear,220,2014-01-02 22:15:00
3:35 PM,43.2,-0.4,16,30.26,10.0,SSW,21.9,29.9,N/A,,Clear,210,2014-01-02 22:35:00
3:55 PM,42.8,-1.3,16,30.27,10.0,SSW,20.7,27.6,N/A,,Clear,210,2014-01-02 22:55:00
4:15 PM,42.3,-1.7,16,30.27,10.0,SSW,19.6,28.8,N/A,,Clear,200,2014-01-02 23:15:00
4:35 PM,41.4,-4.2,15,30.27,10.0,SSW,20.7,31.1,N/A,,Clear,210,2014-01-02 23:35:00
4:55 PM,40.8,-3.1,16,30.27,10.0,SSW,19.6,27.6,N/A,,Clear,210,2014-01-02 23:55:00
5:15 PM,40.1,-2.9,16,30.27,10.0,SSW,18.4,25.3,N/A,,Clear,210,2014-01-03 00:15:00
5:35 PM,41.0,-0.0,18,30.27,10.0,SW,12.7,28.8,N/A,,Clear,230,2014-01-03 00:35:00
5:55 PM,40.5,1.6,20,30.27,10.0,SSW,15.0,20.7,N/A,,Clear,210,2014-01-03 00:55:00
6:15 PM,40.5,-0.2,18,30.27,10.0,SW,17.3,23.0,N/A,,Clear,230,2014-01-03 01:15:00
6:35 PM,39.4,-1.8,18,30.27,10.0,WSW,16.1,24.2,N/A,,Clear,240,2014-01-03 01:35:00
6:55 PM,39.7,0.3,19,30.27,10.0,SW,13.8,19.6,N/A,,Clear,230,2014-01-03 01:55:00
7:15 PM,39.9,0.7,19,30.27,10.0,SW,13.8,21.9,N/A,,Clear,230,2014-01-03 02:15:00
7:35 PM,38.7,0.7,20,30.27,10.0,WSW,11.5,18.4,N/A,,Clear,250,2014-01-03 02:35:00
7:55 PM,38.8,0.9,20,30.25,10.0,SW,13.8,24.2,N/A,,Clear,230,2014-01-03 02:55:00
8:15 PM,39.2,0.7,20,30.25,10.0,SW,15.0,23.0,N/A,,Clear,230,2014-01-03 03:15:00
8:35 PM,38.5,0.9,21,30.24,10.0,SW,19.6,23.0,N/A,,Clear,230,2014-01-03 03:35:00
8:55 PM,38.8,-0.0,20,30.23,10.0,SW,15.0,26.5,N/A,,Clear,220,2014-01-03 03:55:00
9:15 PM,39.4,-0.6,19,30.23,10.0,SW,18.4,27.6,N/A,,Clear,230,2014-01-03 04:15:00
9:35 PM,39.2,-0.8,19,30.23,10.0,WSW,19.6,25.3,N/A,,Clear,240,2014-01-03 04:35:00
9:55 PM,39.4,-0.8,18,30.24,10.0,West,10.4,20.7,N/A,,Clear,280,2014-01-03 04:55:00
10:15 PM,37.6,0.1,21,30.23,10.0,West,12.7,20.7,N/A,,Clear,260,2014-01-03 05:15:00
10:35 PM,37.0,2.1,23,30.22,10.0,West,10.4,-,N/A,,Clear,280,2014-01-03 05:35:00
10:55 PM,36.9,1.9,23,30.22,10.0,WNW,8.1,-,N/A,,Clear,300,2014-01-03 05:55:00
11:15 PM,37.9,2.7,23,30.21,10.0,WSW,9.2,16.1,N/A,,Clear,250,2014-01-03 06:15:00
11:35 PM,37.9,3.0,23,30.21,10.0,WNW,15.0,23.0,N/A,,Clear,290,2014-01-03 06:35:00
11:55 PM,39.6,5.7,25,30.20,10.0,WNW,10.4,24.2,N/A,,Clear,290,2014-01-03 06:55:00